Miscellaneous Local Product
Issued by NWS Hastings, NE

Home | Current Version | Previous Version | Text Only | Print | Product List | Glossary Off
Versions: 1 2 3 4 5 6 7 8 9 10 11 12 13 14 15 16 17 18 19 20 21 22 23 24 25 26 27 28 29 30 31 32 33 34 35 36 37 38 39 40 41 42 43 44 45 46 47 48 49 50

000
AXUS43 KGID 261902
MISGRI

GID CWA HOURLY WEATHER ROUNDUP
NATIONAL WEATHER SERVICE HASTINGS NE
100 PM CST MON JAN 26 2015

NOTE: "FAIR" INDICATES FEW OR NO CLOUDS BELOW 12,000 FEET WITH NO
SIGNIFICANT WEATHER AND/OR OBSTRUCTIONS TO VISIBILITY.

...SOUTH CENTRAL NEBRASKA...

CITY           SKY/WX    TMP DP  RH WIND       PRES   REMARKS
GRAND ISLAND   SUNNY     60  31  33 N21       30.02F
HASTINGS       SUNNY     62  31  31 NW22      30.01F
KEARNEY        SUNNY     63  34  34 NW20      30.02F
ORD            SUNNY     60  33  36 NW16      30.00F
YORK           SUNNY     57  34  41 N15G22    29.99S
AURORA         SUNNY     61  30  31 NW20      30.00F
LEXINGTON      SUNNY     64  34  32 NW15G25   30.04F
HOLDREGE       SUNNY     61  32  32 NW16G24   30.04F
HEBRON         SUNNY     61  31  32 NW17G23   30.00S

...NEBRASKA PANHANDLE...

CITY           SKY/WX    TMP DP  RH WIND       PRES   REMARKS
CHADRON        SUNNY     59  32  36 W15G23    30.11F
ALLIANCE       SUNNY     58  35  42 NW13      30.13F
SCOTTSBLUFF    SUNNY     59  36  42 NW9       30.16F
SIDNEY         SUNNY     64  30  27 NW17      30.18F

...WESTERN AND NORTH CENTRAL NEBRASKA...

CITY           SKY/WX    TMP DP  RH WIND       PRES   REMARKS
VALENTINE      SUNNY     61  32  33 NW14G21   30.03S
AINSWORTH      SUNNY     58  33  40 NW15G23   30.02F
ONEILL         SUNNY     57  35  43 NW15      29.99F
BROKEN BOW     SUNNY     63  34  33 NW25      30.02F
IMPERIAL       SUNNY     66  29  24 NW24      30.12F
NORTH PLATTE   SUNNY     66  30  26 NW18G24   30.07F
MCCOOK         SUNNY     69  30  23 N22G29    30.08F

...EASTERN NEBRASKA...

CITY           SKY/WX    TMP DP  RH WIND       PRES   REMARKS
NORFOLK        SUNNY     56  34  43 NW20G28   29.95S
SO SIOUX CITY  SUNNY     50  39  66 NW18      29.92S
TEKAMAH        SUNNY     55  39  54 NW20      29.93S
COLUMBUS       SUNNY     57  36  44 NW17      29.99R
ALBION         SUNNY     57  31  37 NW16      29.98S
OMAHA EPPLEY   MOSUNNY   56  37  49 N14       29.92R
OFFUTT AFB     SUNNY     57  36  45 NW18G28   29.91S
MILLARD        SUNNY     55  37  49 NW17G23   29.93R
LINCOLN        SUNNY     59  34  39 NW18      29.97S
NEBRASKA CITY  SUNNY     56  31  37 N17       29.93S
BEATRICE       SUNNY     59  35  41 NW21      29.97R
FALLS CITY     SUNNY     58  36  43 NW17G29   29.91S

...NORTHERN KANSAS...

CITY           SKY/WX    TMP DP  RH WIND       PRES   REMARKS
GOODLAND       SUNNY     66  31  27 N16G24    30.17F
HILL CITY      SUNNY     68  31  25 NW16G28   30.08F
NORTON         CLEAR     68  28  22 NW16G24   30.06
PHILLIPSBURG   SUNNY     70  32  24 NW20G26   30.05S
SMITH CENTER   SUNNY     66  32  28 NW20G29   30.01F
BELOIT         SUNNY     68  32  26 NW21G28   29.99F
HAYS           SUNNY     68  34  28 NW20      30.06F
RUSSELL        SUNNY     68  33  27 NW20      30.03F
CONCORDIA      SUNNY     65  35  33 NW20G30   29.99R
SALINA         SUNNY     68  35  29 W16       29.99F
TOPEKA         SUNNY     58  34  40 W9        29.93F



USA.gov is the U.S. government's official web portal to all federal, state and local government web resources and services.